Terug naar catalogus

STARLINK-31406

ActiefCommunicatieVLEO
NORAD 59017·PAYLOAD·🇺🇸 United States

Gelanceerd Feb 23, 2024 vanaf Vandenberg Space Force Base

Loading…

Volgende Passages (komende 24 uur)

TLE

VersSource: CelesTrak SupGP

Epoch: Sep 14, 2026, 22:08 UTC

1 59017C 24036V   26257.92270833  .00050253  00000+0  14849-2 0  2572
2 59017  53.1582 261.7477 0001313  91.6793 174.0256 15.34362606    17

Volg STARLINK-31406 in realtime met AllMySat

Download on the App Store